LHA6JB EDDH-EDDM

Flight info

Callsign LHA6JB
Flight time 0h 57m
Altitude 29000
Route AMLUH2G/33 AMLUH M852 DENIX DCT ZUCKA DCT SODRO T703 LULAR T105 LANDU LANDU2B
Aircraft B738/M-SDE2E3FGHIRWXY/LB1

Departure

Time 2026-05-07 17:36
Airport Hamburg Helmut Schmidt Airport (EDDH)

Arrival

Time 2026-05-07 18:33
Airport Munich Airport (EDDM)
Time Latitude Longitude Altitude Speed Heading
2026-05-07 17:06 53.62927 10.00280 50 ft 0 kts 110°
2026-05-07 17:26 53.62933 10.00258 48 ft 4 kts 120°
2026-05-07 17:26 53.62948 10.00222 46 ft 4 kts 129°
2026-05-07 17:27 53.62961 10.00191 50 ft 4 kts 132°
2026-05-07 17:27 53.62980 10.00173 49 ft 4 kts 193°
2026-05-07 17:27 53.63004 10.00192 47 ft 4 kts 213°
2026-05-07 17:27 53.63009 10.00197 43 ft 0 kts 212°
2026-05-07 17:30 53.63003 10.00191 47 ft 2 kts 211°
2026-05-07 17:30 53.62976 10.00167 48 ft 6 kts 207°
2026-05-07 17:30 53.62930 10.00116 50 ft 10 kts 214°
2026-05-07 17:30 53.62870 10.00029 49 ft 13 kts 231°
2026-05-07 17:31 53.62824 9.99891 49 ft 13 kts 242°
2026-05-07 17:31 53.62811 9.99795 48 ft 8 kts 308°
2026-05-07 17:31 53.62818 9.99787 48 ft 0 kts 329°
2026-05-07 17:35 53.62821 9.99784 46 ft 4 kts 330°
2026-05-07 17:36 53.62986 9.99641 46 ft 61 kts 333°
2026-05-07 17:36 53.63577 9.99132 49 ft 127 kts 333°
2026-05-07 17:36 53.64512 9.98313 258 ft 164 kts 333°
2026-05-07 17:36 53.65536 9.97338 865 ft 174 kts 333°
2026-05-07 17:37 53.66612 9.96362 1671 ft 177 kts 335°
2026-05-07 17:37 53.67779 9.95384 2162 ft 202 kts 338°
2026-05-07 17:37 53.69157 9.94655 2631 ft 211 kts
2026-05-07 17:37 53.70639 9.94719 3267 ft 215 kts
2026-05-07 17:38 53.72123 9.94862 3988 ft 214 kts 17°
2026-05-07 17:38 53.73324 9.96220 4624 ft 210 kts 55°
2026-05-07 17:38 53.73890 9.98477 5294 ft 209 kts 77°
2026-05-07 17:38 53.74158 10.00924 5916 ft 213 kts 81°
2026-05-07 17:39 53.74143 10.03419 6520 ft 216 kts 106°
2026-05-07 17:39 53.73531 10.05825 6877 ft 233 kts 116°
2026-05-07 17:39 53.72713 10.08273 7251 ft 245 kts 119°
2026-05-07 17:39 53.71847 10.10782 7801 ft 251 kts 118°
2026-05-07 17:40 53.70954 10.13402 8158 ft 267 kts 118°
2026-05-07 17:40 53.70014 10.16187 8749 ft 277 kts 118°
2026-05-07 17:40 53.69008 10.18997 9518 ft 284 kts 128°
2026-05-07 17:40 53.67437 10.21011 10282 ft 289 kts 156°
2026-05-07 17:41 53.65473 10.22133 10664 ft 310 kts 163°
2026-05-07 17:41 53.63316 10.23113 10857 ft 334 kts 165°
2026-05-07 17:41 53.60998 10.24120 11200 ft 351 kts 165°
2026-05-07 17:41 53.58614 10.25164 11849 ft 357 kts 165°
2026-05-07 17:42 53.56206 10.26237 12608 ft 360 kts 165°
2026-05-07 17:42 53.53771 10.27338 13355 ft 363 kts 165°
2026-05-07 17:42 53.51319 10.28455 14071 ft 367 kts 165°
2026-05-07 17:42 53.48840 10.29589 14734 ft 371 kts 165°
2026-05-07 17:43 53.46342 10.30734 15420 ft 374 kts 165°
2026-05-07 17:43 53.43815 10.31892 16100 ft 378 kts 165°
2026-05-07 17:43 53.41261 10.33055 16747 ft 383 kts 165°
2026-05-07 17:43 53.38665 10.34225 17402 ft 388 kts 166°
2026-05-07 17:44 53.36049 10.35399 18062 ft 391 kts 166°
2026-05-07 17:44 53.33411 10.36579 18660 ft 394 kts 166°
2026-05-07 17:44 53.30752 10.37767 19189 ft 397 kts 166°
2026-05-07 17:44 53.28069 10.38964 19731 ft 400 kts 166°
2026-05-07 17:45 53.25376 10.40164 20289 ft 403 kts 166°
2026-05-07 17:45 53.22660 10.41373 20815 ft 406 kts 166°
2026-05-07 17:45 53.19917 10.42593 21335 ft 409 kts 166°
2026-05-07 17:45 53.17157 10.43819 21855 ft 412 kts 166°
2026-05-07 17:46 53.14382 10.45051 22350 ft 415 kts 166°
2026-05-07 17:46 53.11575 10.46209 22844 ft 417 kts 169°
2026-05-07 17:46 53.08720 10.47165 23336 ft 420 kts 171°
2026-05-07 17:46 53.05831 10.48055 23787 ft 423 kts 171°
2026-05-07 17:47 53.02927 10.48924 24182 ft 425 kts 171°
2026-05-07 17:47 53.00009 10.49797 24587 ft 428 kts 171°
2026-05-07 17:47 52.97073 10.50683 24979 ft 430 kts 171°
2026-05-07 17:47 52.94117 10.51583 25363 ft 432 kts 171°
2026-05-07 17:48 52.91154 10.52493 25733 ft 435 kts 170°
2026-05-07 17:48 52.88176 10.53411 26099 ft 437 kts 170°
2026-05-07 17:48 52.85186 10.54333 26454 ft 439 kts 170°
2026-05-07 17:48 52.82165 10.55266 26813 ft 441 kts 170°
2026-05-07 17:49 52.79144 10.56197 27254 ft 441 kts 170°
2026-05-07 17:49 52.76135 10.57123 27771 ft 439 kts 170°
2026-05-07 17:49 52.73137 10.58045 28285 ft 438 kts 170°
2026-05-07 17:49 52.70161 10.58958 28757 ft 437 kts 170°
2026-05-07 17:50 52.67168 10.59874 29089 ft 440 kts 169°
2026-05-07 17:50 52.65163 10.60487 29064 ft 444 kts 169°
2026-05-07 17:50 52.59084 10.62344 29077 ft 441 kts 169°
2026-05-07 17:51 52.53086 10.64170 29100 ft 438 kts 169°
2026-05-07 17:51 52.46102 10.66290 29108 ft 440 kts 169°
2026-05-07 17:52 52.41039 10.67822 29101 ft 442 kts 169°
2026-05-07 17:52 52.35054 10.70124 29103 ft 443 kts 160°
2026-05-07 17:53 52.29308 10.73777 29098 ft 443 kts 158°
2026-05-07 17:53 52.23578 10.77480 29103 ft 446 kts 159°
2026-05-07 17:54 52.17768 10.81138 29101 ft 459 kts 159°
2026-05-07 17:54 52.11782 10.84842 29078 ft 463 kts 159°
2026-05-07 17:55 52.05782 10.88528 29079 ft 460 kts 160°
2026-05-07 17:55 51.99800 10.92191 29065 ft 459 kts 160°
2026-05-07 17:56 51.93840 10.95832 29077 ft 458 kts 160°
2026-05-07 17:56 51.87880 10.99463 29080 ft 458 kts 160°
2026-05-07 17:57 51.81920 11.03085 29074 ft 458 kts 160°
2026-05-07 17:57 51.75943 11.06707 29070 ft 459 kts 160°
2026-05-07 17:58 51.69955 11.10326 29077 ft 460 kts 160°
2026-05-07 17:58 51.63959 11.13939 29074 ft 460 kts 160°
2026-05-07 17:59 51.57969 11.17538 29068 ft 461 kts 160°
2026-05-07 17:59 51.52041 11.21090 29075 ft 462 kts 160°
2026-05-07 18:00 51.46008 11.24695 29068 ft 463 kts 160°
2026-05-07 18:00 51.39967 11.28294 29075 ft 464 kts 160°
2026-05-07 18:01 51.33914 11.31889 29064 ft 464 kts 160°
2026-05-07 18:01 51.27863 11.35475 29068 ft 464 kts 160°
2026-05-07 18:02 51.18800 11.40825 29060 ft 463 kts 160°
2026-05-07 18:03 51.12796 11.44357 29063 ft 463 kts 160°
2026-05-07 18:03 51.06747 11.47906 29064 ft 463 kts 159°
2026-05-07 18:04 51.00793 11.51389 29069 ft 464 kts 159°
2026-05-07 18:04 50.94737 11.54921 29059 ft 464 kts 159°
2026-05-07 18:05 50.88675 11.58448 29069 ft 464 kts 159°
2026-05-07 18:05 50.82611 11.61966 29060 ft 464 kts 159°
2026-05-07 18:06 50.76544 11.65466 29057 ft 464 kts 160°
2026-05-07 18:06 50.70479 11.68951 29064 ft 464 kts 160°
2026-05-07 18:07 50.64497 11.72393 29061 ft 464 kts 160°
2026-05-07 18:07 50.58426 11.75880 29060 ft 465 kts 160°
2026-05-07 18:08 50.52331 11.79370 29059 ft 466 kts 160°
2026-05-07 18:08 50.46226 11.82867 29053 ft 467 kts 159°
2026-05-07 18:09 50.40227 11.86833 29054 ft 468 kts 156°
2026-05-07 18:09 50.34267 11.90982 29046 ft 469 kts 156°
2026-05-07 18:10 50.28276 11.95060 29047 ft 469 kts 157°
2026-05-07 18:10 50.22321 11.99068 29048 ft 469 kts 157°
2026-05-07 18:11 50.16334 12.03084 29054 ft 469 kts 157°
2026-05-07 18:11 50.10343 12.07097 29051 ft 468 kts 157°
2026-05-07 18:12 50.04361 12.11093 29035 ft 468 kts 157°
2026-05-07 18:12 49.98376 12.15085 29034 ft 468 kts 158°
2026-05-07 18:13 49.92393 12.19068 29035 ft 467 kts 158°
2026-05-07 18:13 49.86425 12.23030 29036 ft 467 kts 158°
2026-05-07 18:14 49.80452 12.26975 29031 ft 467 kts 158°
2026-05-07 18:14 49.74454 12.30894 28431 ft 470 kts 158°
2026-05-07 18:14 49.71531 12.33137 27879 ft 469 kts 150°
2026-05-07 18:15 49.68863 12.36053 27357 ft 471 kts 143°
2026-05-07 18:15 49.66258 12.39159 26830 ft 474 kts 145°
2026-05-07 18:15 49.63402 12.41689 26223 ft 475 kts 160°
2026-05-07 18:15 49.60226 12.43015 25603 ft 470 kts 174°
2026-05-07 18:16 49.57002 12.43264 25006 ft 460 kts 186°
2026-05-07 18:16 49.53840 12.42823 24430 ft 453 kts 187°
2026-05-07 18:16 49.50719 12.42415 23844 ft 448 kts 187°
2026-05-07 18:16 49.47635 12.42049 23226 ft 443 kts 187°
2026-05-07 18:17 49.44579 12.41711 22568 ft 439 kts 186°
2026-05-07 18:17 49.41591 12.41393 21943 ft 434 kts 186°
2026-05-07 18:17 49.38558 12.41063 21361 ft 428 kts 188°
2026-05-07 18:17 49.35648 12.40344 20792 ft 421 kts 194°
2026-05-07 18:18 49.32799 12.39409 20241 ft 416 kts 195°
2026-05-07 18:18 49.29991 12.38444 19680 ft 411 kts 195°
2026-05-07 18:18 49.27249 12.37502 19152 ft 407 kts 195°
2026-05-07 18:18 49.24496 12.36572 18624 ft 403 kts 195°
2026-05-07 18:19 49.21765 12.35666 18068 ft 399 kts 195°
2026-05-07 18:19 49.19063 12.34783 17481 ft 396 kts 195°
2026-05-07 18:19 49.16381 12.33919 16897 ft 392 kts 195°
2026-05-07 18:19 49.13717 12.33064 16325 ft 389 kts 195°
2026-05-07 18:20 49.11087 12.32220 15768 ft 386 kts 194°
2026-05-07 18:20 49.08472 12.31383 15211 ft 382 kts 194°
2026-05-07 18:20 49.05880 12.30553 14673 ft 379 kts 194°
2026-05-07 18:20 49.03312 12.29734 14135 ft 373 kts 194°
2026-05-07 18:21 49.00826 12.28943 13709 ft 357 kts 194°
2026-05-07 18:21 48.98440 12.28187 13298 ft 346 kts 194°
2026-05-07 18:21 48.96098 12.27442 12905 ft 342 kts 195°
2026-05-07 18:21 48.93787 12.26706 12512 ft 337 kts 195°
2026-05-07 18:22 48.91500 12.25978 12119 ft 333 kts 195°
2026-05-07 18:22 48.89975 12.25494 11860 ft 331 kts 195°
2026-05-07 18:22 48.87007 12.24551 11351 ft 327 kts 195°
2026-05-07 18:22 48.84797 12.23851 11089 ft 321 kts 195°
2026-05-07 18:23 48.82597 12.23153 11067 ft 323 kts 195°
2026-05-07 18:23 48.80402 12.22458 11060 ft 321 kts 195°
2026-05-07 18:23 48.78214 12.21767 11050 ft 321 kts 195°
2026-05-07 18:23 48.76030 12.21077 11047 ft 318 kts 195°
2026-05-07 18:24 48.73904 12.20408 11041 ft 306 kts 195°
2026-05-07 18:24 48.71860 12.19768 11034 ft 293 kts 195°
2026-05-07 18:24 48.69897 12.19152 11036 ft 284 kts 195°
2026-05-07 18:24 48.67970 12.18545 11046 ft 283 kts 195°
2026-05-07 18:25 48.66039 12.17935 11058 ft 285 kts 195°
2026-05-07 18:25 48.64087 12.17318 10814 ft 291 kts 195°
2026-05-07 18:25 48.62096 12.16691 10397 ft 290 kts 195°
2026-05-07 18:25 48.60134 12.16076 9906 ft 287 kts 195°
2026-05-07 18:26 48.58187 12.15467 9371 ft 284 kts 195°
2026-05-07 18:26 48.56258 12.14863 8855 ft 281 kts 195°
2026-05-07 18:26 48.54372 12.14275 8379 ft 272 kts 195°
2026-05-07 18:26 48.52555 12.13709 7875 ft 262 kts 195°
2026-05-07 18:27 48.50805 12.13163 7394 ft 252 kts 195°
2026-05-07 18:27 48.49109 12.12632 6885 ft 246 kts 195°
2026-05-07 18:27 48.47454 12.12113 6404 ft 248 kts 195°
2026-05-07 18:27 48.46306 12.11753 6052 ft 250 kts 195°
2026-05-07 18:28 48.44046 12.11048 5526 ft 244 kts 194°
2026-05-07 18:28 48.42402 12.10537 5129 ft 239 kts 193°
2026-05-07 18:28 48.40810 12.10042 4747 ft 234 kts 193°
2026-05-07 18:28 48.39341 12.09122 4302 ft 222 kts 224°
2026-05-07 18:29 48.38667 12.07219 4035 ft 201 kts 263°
2026-05-07 18:29 48.38533 12.05231 4006 ft 187 kts 263°
2026-05-07 18:29 48.38356 12.03308 4007 ft 185 kts 263°
2026-05-07 18:29 48.38191 12.01359 3970 ft 189 kts 264°
2026-05-07 18:30 48.38036 11.99417 3762 ft 189 kts 264°
2026-05-07 18:30 48.37885 11.97509 3500 ft 176 kts 265°
2026-05-07 18:30 48.37747 11.95752 3279 ft 163 kts 265°
2026-05-07 18:30 48.37618 11.94103 3072 ft 156 kts 265°
2026-05-07 18:31 48.37492 11.92483 2868 ft 156 kts 265°
2026-05-07 18:31 48.37366 11.90856 2673 ft 157 kts 265°
2026-05-07 18:31 48.37238 11.89208 2434 ft 159 kts 265°
2026-05-07 18:31 48.37110 11.87559 2200 ft 159 kts 265°
2026-05-07 18:32 48.36976 11.85936 2000 ft 156 kts 265°
2026-05-07 18:32 48.36853 11.84316 1785 ft 156 kts 266°
2026-05-07 18:32 48.36728 11.82706 1607 ft 153 kts 265°
2026-05-07 18:32 48.36612 11.81137 1484 ft 143 kts 263°
2026-05-07 18:33 48.36516 11.79873 1484 ft 100 kts 264°
2026-05-07 18:33 48.36447 11.78962 1476 ft 80 kts 264°
2026-05-07 18:33 48.36378 11.78222 1475 ft 53 kts 253°
2026-05-07 18:33 48.36208 11.77830 1471 ft 26 kts 233°
2026-05-07 18:34 48.36169 11.77751 1476 ft 2 kts 233°
2026-05-07 18:34 48.36165 11.77744 1474 ft 0 kts 233°
2026-05-07 18:34 48.36165 11.77743 1474 ft 1 kts 233°
2026-05-07 18:34 48.36150 11.77715 1484 ft 7 kts 232°
2026-05-07 18:35 48.36118 11.77670 1475 ft 7 kts 212°
2026-05-07 18:35 48.36069 11.77658 1484 ft 10 kts 176°
2026-05-07 18:35 48.35979 11.77674 1480 ft 13 kts 173°
2026-05-07 18:35 48.35900 11.77688 1481 ft 8 kts 174°
2026-05-07 18:36 48.35863 11.77694 1482 ft 8 kts 173°
2026-05-07 18:36 48.35828 11.77701 1484 ft 2 kts 172°
2026-05-07 18:36 48.35820 11.77702 1480 ft 4 kts 172°
2026-05-07 18:36 48.35741 11.77693 1484 ft 13 kts 185°
2026-05-07 18:37 48.35626 11.77708 1480 ft 20 kts 173°
2026-05-07 18:37 48.35550 11.77721 1479 ft 13 kts 173°
2026-05-07 18:37 48.35464 11.77736 1481 ft 7 kts 173°
2026-05-07 18:37 48.35425 11.77721 1484 ft 6 kts 240°
2026-05-07 18:38 48.35419 11.77676 1478 ft 1 kts 262°
2026-05-07 18:38 48.35418 11.77668 1481 ft 1 kts 262°